OpenBCM V1.08-5-g2f4a (Linux)

Packet Radio Mailbox

IZ3LSV

[San Dona' di P. JN]

 Login: GUEST





  
WG3K   > KEPS     15.09.24 03:05l 396 Lines 19023 Bytes #82 (0) @ AMSAT
BID : ORB24259.1
Read: GUEST
Subj: 2Line Orbital Elements 24259.AMSAT
Path: IZ3LSV<ED1ZAC<GB7CIP<VK2RZ<KC9UHI<KA1VSC<WG3K
Sent: 240915/0149Z 8244@WG3K.#SMD.MD.USA.NOAM LinBPQ6.0.24


QST de W1STR

AMSAT Orbital Elements for Amateur Satellites in TLE Format
From Orbital Analysis Office
New England Sci-Tech STEM Education Center
Natick, MA September 15, 2024
To all radio amateurs


These element sets describe the orbits of various satellites 
in use by the amateur radio community. For details see:
www.amsat.org/keplerian-elements-formats/

A daily update of element sets is available at:
www.amsat.org/tle/daily-bulletin.txt
or without bulletin text:
www.amsat.org/tle/dailytle.txt


AO-07
1 07530U 74089B   24258.61341362  .00000000  00000-0  29315-3 0  9993
2 07530 101.9858 254.1187 0011838 274.1591 196.9869 12.53679481280247
UO-11
1 14781U 84021B   24258.45235895  .00007249  00000-0  80688-3 0  9993
2 14781  97.7143 225.1201 0009418 133.5121 226.6880 14.87373018161759
AO-27
1 22825U 93061C   24258.85555514  .00000582  00000-0  24020-3 0  9993
2 22825  98.7797 312.5312 0008646 169.6631 190.4730 14.30581215615704
FO-29
1 24278U 96046B   24258.80614236  .00000119  00000-0  15983-3 0  9999
2 24278  98.5795 181.7092 0349361 316.2894  41.1060 13.53209946386804
NOAA-15
1 25338U 98030A   24258.86825857  .00000772  00000-0  33688-3 0  9998
2 25338  98.5648 284.1093 0011338  66.0793 294.1574 14.26707991370229
GO-32
1 25397U 98043D   24258.46766925  .00000657  00000-0  30532-3 0  9990
2 25397  98.9324 226.5675 0000205 223.8586 136.2575 14.24123092360126
ISS
1 25544U 98067A   24258.84707756  .00035823  00000-0  65197-3 0  9997
2 25544  51.6384 231.2537 0007193 355.2122  86.3485 15.49128767472458
NO-44
1 26931U 01043C   24258.30025238  .00001054  00000-0  42823-3 0  9995
2 26931  67.0496 101.3149 0007676 267.5907  92.4316 14.31372096198702
SO-50
1 27607U 02058C   24258.84331651  .00004435  00000-0  60404-3 0  9992
2 27607  64.5557 305.8511 0026546  62.4322 297.9474 14.79660412169795
CO-55
1 27844U 03031E   24258.57783288  .00001700  00000-0  76723-3 0  9997
2 27844  98.6800 264.3799 0008563 242.1035 117.9276 14.23463893100509
CO-57
1 27848U 03031J   24258.54785318  .00001462  00000-0  66974-3 0  9996
2 27848  98.6830 264.5434 0008370 260.7962  99.2270 14.22876577100248
RS-22
1 27939U 03042A   24258.86083161  .00004907  00000-0  81451-3 0  9995
2 27939  98.3015  56.5691 0012528 134.1941  12.9354 14.70598563121456
NOAA-18
1 28654U 05018A   24258.83734668  .00000728  00000-0  41123-3 0  9996
2 28654  98.8689 335.0402 0014621 165.5583 194.6010 14.13327659995925
CO-58
1 28895U 05043F   24258.80017511  .00006037  00000-0  10465-2 0  9992
2 28895  98.2133  34.8567 0016180  75.8719 284.4282 14.68546989  7834
CO-65
1 32785U 08021C   24258.89047891  .00013060  00000-0  10939-2 0  9997
2 32785  97.7625 223.6029 0011637  34.8444 325.3538 14.98502311888975
AAUSAT2
1 32788U 08021F   24258.88689724  .00051287  00000-0  20830-2 0  9990
2 32788  97.5998 239.7917 0005142 158.4649 201.6805 15.24387230892055
CO-66
1 32791U 08021J   24258.88537821  .00022850  00000-0  15310-2 0  9995
2 32791  97.6970 229.7529 0005820  35.7010 324.4606 15.06876908890090
RS-30
1 32953U 08025A   24258.80731901  .00000035  00000-0  18052-3 0  9994
2 32953  82.5052  33.7283 0018625 268.6152  91.2794 12.43148025740254
PRISM
1 33493U 09002B   24258.71096908  .00085862  00000-0  32470-2 0  9991
2 33493  98.1947 314.4225 0009622 293.9573  66.0655 15.26569066852672
NOAA-19
1 33591U 09005A   24258.87239687  .00000664  00000-0  37942-3 0  9990
2 33591  99.0385 315.5870 0014366  43.1283 317.1011 14.13117730804292
SRMSAT
1 37841U 11058D   24258.58138701  .00001008  00000-0  40589-3 0  9990
2 37841  19.9731 336.0713 0011817 358.5356 137.9804 14.11206978667203
RS-40
1 38735U 12041C   24258.54923273  .00000058  00000-0  34514-3 0  9993
2 38735  82.4724 114.1783 0017990  26.3088 333.8901 12.42615507550272
ZACUBE-1
1 39417U 13066B   24258.84141881  .00011226  00000-0  11163-2 0  9992
2 39417  97.7419 212.9229 0047364 221.3543 138.4086 14.90991943584932
Delfi-N3xt
1 39428U 13066N   24258.49598668  .00022216  00000-0  26795-2 0  9992
2 39428  97.8321 174.5734 0098262 157.4065 203.1519 14.80374806579298
GOMX-1
1 39430U 13066Q   24258.89379375  .00006763  00000-0  11045-2 0  9992
2 39430  97.7182 127.8297 0137316 328.1097  31.1847 14.65067480576173
LO-74
1 39440U 13066AA  24258.58760468  .00018301  00000-0  20672-2 0  9993
2 39440  97.8165 200.4175 0067176 343.7204  16.1852 14.84912339581592
AO-73
1 39444U 13066AE  24258.81631366  .00014492  00000-0  13235-2 0  9991
2 39444  97.7260 216.2808 0045476 199.5570 160.3908 14.94353883584075
DTUSAT-2
1 40030U 14033W   24258.84715440  .00015412  00000-0  12225-2 0  9999
2 40030  98.0173 213.8250 0008477 217.0496 143.0143 15.00591912556648
EO-80
1 40032U 14033Y   24258.88035568  .00016105  00000-0  12763-2 0  9998
2 40032  98.0105 213.8358 0008455 177.5891 182.5374 15.00616142556635
XW-2C
1 40906U 15049H   24258.81757595  .00067946  00000-0  11431-2 0  9990
2 40906  97.4734 278.4355 0004841 359.5207   0.6040 15.51493226498321
XW-2D
1 40907U 15049J   24258.84053312  .00147735  00000-0  14354-2 0  9992
2 40907  97.4641 282.2805 0001245 345.2331  14.8893 15.65836925498647
LILACSAT-2
1 40908U 15049K   24258.87543631  .00018494  00000-0  65614-3 0  9999
2 40908  97.5250 268.3838 0012877  44.6106 315.6168 15.29039485497180
XW-2B
1 40911U 15049N   24258.86300350  .00139305  00000-0  14431-2 0  9996
2 40911  97.4624 282.2231 0001638 356.6657   3.4591 15.64240899498501
IO-86
1 40931U 15052B   24231.70395842  .00002296  00000-0  22250-3 0  9993
2 40931   5.9997 265.9807 0013402 250.6059 109.2619 14.78018769480834
ChubuSat-2
1 41338U 16012B   24258.04998477  .00017206  00000-0  10254-2 0  9998
2 41338  30.9998 178.2553 0010119  44.6371 315.5080 15.09987024471039
ChubuSat-3
1 41339U 16012C   24258.89150257  .00010956  00000-0  66491-3 0  9998
2 41339  31.0068 171.9311 0010198  57.3920 302.7701 15.09243610471135
Horyu-4
1 41340U 16012D   24258.89411712  .00027025  00000-0  12067-2 0  9990
2 41340  31.0013 109.5625 0007014 166.7384 193.3442 15.20178122471790
Lapan A3
1 41603U 16040E   24258.83126751  .00007718  00000-0  29910-3 0  9996
2 41603  97.1431 268.5489 0013292 136.5949 223.6340 15.26327664456891
Pratham
1 41783U 16059A   24258.46451678  .00003845  00000-0  71539-3 0  9994
2 41783  97.8356 273.6225 0033958  97.3005 263.2061 14.65275443425611
CAS-2T
1 41847U 16066G   24258.43134786  .00004552  00000-0  67071-3 0  9990
2 41847  98.4532 329.0670 0351021 268.5015  87.5947 14.41776438412353
CAS-4B
1 42759U 17034B   24258.85937382  .00035707  00000-0  10912-2 0  9995
2 42759  43.0150  78.1708 0013196 238.7823 121.1738 15.33175393401149
CAS-4A
1 42761U 17034D   24258.85279169  .00037990  00000-0  11528-2 0  9990
2 42761  43.0190  76.4833 0013136 249.9459 109.9981 15.33375528401156
D-SAT
1 42794U 17036AF  24258.42535340  .00019704  00000-0  13025-2 0  9994
2 42794  97.4858 237.1487 0105890 203.8701 155.7595 15.02851036394111
TechnoSat
1 42829U 17042E   24258.74442733  .00011981  00000-0  10214-2 0  9994
2 42829  97.3872  74.8801 0012615 129.6352 230.5986 14.97817615390570
AO-91
1 43017U 17073E   24258.57654082  .00029793  00000-0  17478-2 0  9990
2 43017  97.5627 130.9690 0202515 354.8242   5.0883 14.96012297369018
TianYi 6
1 43158U 18008D   24258.72897922  .00346553  00000-0  27260-2 0  9990
2 43158  97.2484 308.6700 0005563 150.9452 209.2122 15.70436232368396
S-Net D
1 43186U 18014G   24258.46327508  .00016480  00000-0  11249-2 0  9990
2 43186  97.5799 158.7705 0012355  68.2889 291.9652 15.06207381361939
S-Net B
1 43187U 18014H   24258.73176813  .00016932  00000-0  11554-2 0  9993
2 43187  97.5805 158.9905 0013035  63.2284 297.0275 15.06206333361970
S-Net A
1 43188U 18014J   24258.46434720  .00016858  00000-0  11503-2 0  9999
2 43188  97.5810 158.8476 0012896  64.5481 295.7079 15.06209212361938
S-Net C
1 43189U 18014K   24258.66740853  .00016902  00000-0  11529-2 0  9997
2 43189  97.5823 159.0127 0014413  56.9982 303.2628 15.06204396360513
Ten-Koh
1 43677U 18084G   24258.40521797  .00012610  00000-0  10930-2 0  9999
2 43677  98.0747  54.6753 0014852  81.6539 278.6365 14.97157153320067
PO-101
1 43678U 18084H   24258.86022216  .00005413  00000-0  48791-3 0  9992
2 43678  98.0815  59.5673 0010180  95.0783 265.1600 14.95972065320326
QO-100
1 43700U 18090A   24258.85465970  .00000139  00000-0  00000+0 0  9999
2 43700   0.0108 124.9820 0001224  34.0255 168.7928  1.00271004 21503
MinXSS-2
1 43758U 18099A   24258.14094441  .00032838  00000-0  18879-2 0  9991
2 43758  97.5450 319.2656 0015177  16.7654 343.4075 15.12308419316214
AO-95
1 43770U 18099N   24258.62171149  .00025268  00000-0  16259-2 0  9998
2 43770  97.5373 314.6440 0014041  62.6672 297.5984 15.08279070316034
RANGE-B
1 43772U 18099Q   24258.69648321  .00038753  00000-0  21436-2 0  9994
2 43772  97.5160 318.5757 0004014 325.3536  34.7433 15.13743581316243
RANGE-A
1 43773U 18099R   24258.71395830  .00014713  00000-0  10673-2 0  9993
2 43773  97.4919 309.1090 0013195  34.9369 325.2721 15.03943187315888
MOVE-II
1 43780U 18099Y   24258.65224573  .00082258  00000-0  35447-2 0  9994
2 43780  97.5119 321.1013 0005172  35.9686 324.1897 15.22221301316507
SNUSat 2
1 43782U 18099AA  24258.42747204  .00022718  00000-0  15097-2 0  9996
2 43782  97.5057 313.1086 0013701   3.8993 356.2339 15.07117532316008
SnugLite
1 43784U 18099AC  24258.43730834  .00032479  00000-0  20761-2 0  9999
2 43784  97.4869 312.4162 0004149  24.3115 335.8309 15.08540473316080
ITASat 1
1 43786U 18099AE  24258.54668042  .00019210  00000-0  13066-2 0  9992
2 43786  97.5024 313.3479 0017667  52.9065 307.3774 15.06239041316014
